Wind_Speed
24 24 23 23 23 22 22 21 20 19 18 17 17 16 15 14 14 13 13 13 12 12 12 12 12 13 13 13 13 14 14 14 14 13 13 13 13 12 12 12 12 13 13 13 14 14 15 15 15 16 16 17 17 17 18 18 19 19 20 20 21 21 21 20 18 17 16 14 14 14 15 17 18 19 19 20 22 23 21 20 19 18 16 16 15 14 15 15
26 26 25 25 25 24 23 23 22 21 20 19 18 17 17 16 15 15 15 15 14 14 14 15 15 15 15 15 16 16 16 16 16 16 16 15 15 15 15 15 15 15 16 16 17 17 17 17 18 18 18 19 19 19 19 19 20 21 22 23 23 23 22 20 18 16 16 15 14 14 16 18 19 19 19 20 22 24 23 22 20 19 18 17 16 16 16 16
28 28 27 27 26 26 25 24 23 22 22 21 20 19 18 18 17 17 17 17 16 17 17 17 18 18 17 17 18 18 18 18 18 18 18 18 17 17 17 18 18 18 18 19 19 20 20 20 20 20 20 20 20 20 21 21 22 23 24 25 25 24 22 19 17 16 16 16 15 16 17 19 20 20 20 20 23 25 24 23 22 21 21 20 18 18 17 17
30 30 29 29 28 27 27 26 25 24 24 23 22 21 20 20 19 19 19 19 19 19 19 20 20 20 19 19 19 19 19 19 19 19 19 19 19 19 19 19 20 20 20 21 21 21 22 22 22 22 22 22 22 21 22 23 24 25 25 25 25 23 21 18 17 16 16 16 17 17 18 20 21 21 22 22 23 25 24 24 23 22 22 21 20 19 19 18
32 32 31 31 30 29 29 28 27 26 26 25 24 23 22 22 22 21 21 21 21 21 22 22 22 21 21 20 20 20 20 20 20 20 20 20 20 20 20 21 21 21 22 22 23 23 23 23 23 23 23 23 23 23 24 25 26 26 25 24 22 21 19 17 16 17 17 17 18 19 20 22 23 24 24 23 24 25 25 25 24 23 22 22 21 21 20 20
34 34 33 33 32 31 31 30 29 29 28 27 27 26 25 24 24 24 23 23 23 24 24 24 23 23 22 21 21 21 22 21 20 20 21 21 21 21 22 22 22 23 23 24 24 25 25 25 25 25 25 25 25 25 26 26 26 25 24 22 19 19 18 16 16 17 18 18 19 20 22 23 24 25 26 25 25 25 26 26 25 24 23 22 22 21 21 21
36 36 35 35 34 33 33 32 32 31 30 29 29 28 27 27 26 26 26 26 26 26 26 25 24 24 23 22 22 22 23 22 21 22 22 22 23 23 23 24 24 25 25 26 26 27 27 27 27 27 26 26 26 26 25 25 24 22 21 19 17 17 18 17 18 19 19 20 21 22 24 24 25 26 28 27 26 26 26 25 25 24 24 23 22 21 20 21
38 37 37 37 36 35 35 34 33 33 32 31 31 30 30 29 29 29 28 28 28 28 27 26 25 25 24 23 23 23 24 23 22 23 24 24 25 25 26 26 27 27 27 27 27 27 27 27 26 26 25 25 24 24 23 22 20 19 19 18 18 17 18 18 20 21 21 22 23 24 25 25 25 26 28 28 27 27 26 26 25 25 24 24 23 22 20 20
40 39 39 38 38 37 36 36 35 34 34 33 33 32 32 32 31 31 31 30 30 29 29 27 26 26 24 24 24 24 26 25 24 25 26 26 27 27 28 28 28 27 26 26 25 25 24 24 24 23 23 22 22 22 21 21 19 18 18 18 18 19 19 20 22 23 24 24 25 25 26 26 25 27 28 27 26 27 26 26 26 25 24 24 23 23 22 21
41 41 40 40 39 39 38 37 37 36 36 35 35 35 34 34 34 34 33 32 31 30 29 28 28 27 26 26 25 26 28 26 26 28 28 29 29 30 30 29 27 26 25 24 24 24 24 23 23 23 23 22 22 22 22 21 19 19 19 19 20 21 22 23 24 25 25 26 26 26 26 26 25 27 28 27 26 27 26 25 25 25 24 23 22 22 23 23
43 42 42 42 41 40 40 39 39 38 38 38 38 37 37 36 36 36 35 34 32 31 30 29 29 28 27 27 26 28 29 28 29 30 31 31 32 31 30 29 27 26 26 26 26 26 26 26 26 26 25 24 24 24 23 23 22 22 22 22 23 23 24 26 26 26 26 26 26 26 25 24 25 27 27 26 26 28 27 25 24 24 23 22 22 23 23 23
44 44 44 43 43 42 42 41 41 41 40 40 40 39 39 39 38 37 36 34 32 31 31 30 30 30 29 29 29 31 31 31 32 33 33 34 33 33 31 30 29 28 28 29 29 29 29 29 29 29 28 26 26 26 25 25 25 25 25 24 25 25 25 26 27 26 26 27 27 26 23 21 24 26 26 26 27 29 27 25 23 23 23 24 24 25 25 24
46 46 46 45 45 44 44 44 43 43 43 42 42 42 41 40 39 38 36 35 33 32 32 32 32 32 31 31 31 33 33 34 34 35 35 35 34 33 31 31 30 30 30 30 30 31 30 30 30 29 28 27 26 26 26 26 26 27 27 26 26 27 26 27 27 26 27 27 27 27 22 19 23 26 26 27 28 29 28 25 24 23 24 25 26 26 25 24
48 47 47 47 46 46 46 46 45 45 45 44 44 43 42 41 39 38 36 36 35 34 34 34 34 34 34 33 34 35 35 36 36 36 36 35 34 33 32 32 32 32 32 32 31 31 30 30 29 29 28 27 26 27 27 27 27 28 28 27 27 27 26 26 27 27 28 28 27 27 23 18 22 27 27 28 29 29 27 25 24 24 25 25 25 25 25 24
49 49 48 48 48 47 47 47 47 46 46 45 45 44 42 41 40 39 38 37 37 37 37 37 37 37 37 36 36 36 37 37 37 36 36 34 34 33 33 33 33 33 33 32 31 31 30 30 29 29 28 28 28 28 29 30 29 29 30 29 28 26 24 25 26 27 28 29 29 29 25 19 21 27 28 29 29 28 26 25 24 24 24 25 24 23 23 23
51 50 49 49 48 48 48 48 47 47 47 46 45 44 43 42 41 41 40 40 40 40 40 40 40 40 40 38 37 37 37 37 36 36 35 35 34 34 34 35 34 34 33 32 31 31 31 31 30 30 29 29 29 30 31 31 30 30 31 30 28 26 24 23 25 28 29 31 30 30 28 23 22 28 31 31 29 27 26 25 24 23 24 24 23 23 23 23
52 51 51 50 50 49 49 49 48 48 48 47 46 45 45 44 44 43 43 42 42 42 42 42 42 42 42 40 38 37 37 37 36 36 35 35 36 36 36 36 35 35 34 33 32 32 32 32 32 31 30 29 29 32 33 32 30 31 32 30 29 27 25 23 24 28 31 32 33 31 29 26 25 29 33 33 29 26 26 26 25 24 24 24 24 24 24 24
53 53 52 52 51 50 50 50 50 49 48 48 47 46 46 45 45 45 44 44 44 43 43 43 43 44 42 40 38 37 37 37 36 36 37 37 37 37 37 36 36 35 34 34 33 33 34 34 33 32 30 29 31 34 35 32 32 32 32 32 31 29 27 24 25 30 33 33 34 32 31 29 26 30 34 33 29 26 25 25 24 24 24 23 23 24 24 24
53 53 53 52 52 52 51 51 51 50 49 49 48 47 47 47 46 46 45 45 44 44 44 44 44 43 41 39 39 38 37 38 37 38 38 38 38 38 37 37 36 35 35 34 35 36 36 35 34 31 29 30 34 35 34 33 33 33 33 33 33 31 28 26 28 33 35 35 34 32 33 30 27 30 34 31 28 26 25 24 24 24 24 23 23 23 24 24
52 51 51 51 51 51 51 51 51 50 50 50 50 49 49 48 48 47 47 46 45 45 45 45 44 44 42 41 40 40 39 39 40 39 39 39 38 38 38 37 36 36 35 36 37 37 37 37 34 29 29 33 36 35 34 34 34 34 35 34 34 33 29 28 32 35 36 37 34 32 33 29 28 31 33 29 27 26 25 25 24 23 23 23 23 23 24 24
51 51 51 50 50 50 50 50 50 50 50 50 50 50 50 49 50 49 48 48 47 47 47 46 46 45 43 43 42 42 42 41 40 40 39 39 39 38 37 36 36 36 37 38 39 38 38 38 32 29 33 36 36 35 36 36 36 36 36 36 36 34 32 32 35 37 37 37 35 32 32 29 29 32 30 27 27 26 26 26 24 23 23 23 24 25 26 27
52 51 51 51 50 50 50 49 49 49 49 50 49 49 50 50 50 50 50 50 49 49 49 48 48 46 45 45 45 44 44 42 41 39 39 38 38 37 37 37 38 38 39 40 39 38 40 37 32 33 37 37 37 37 38 38 38 38 37 38 37 35 35 35 36 37 37 37 35 33 32 29 30 30 29 27 27 27 28 28 26 24 24 25 27 28 29 30
52 52 52 51 51 51 50 49 48 48 48 48 48 49 49 49 50 50 51 51 50 49 50 50 49 48 46 46 46 45 44 42 40 39 38 38 37 38 39 39 39 40 40 40 39 40 41 38 34 36 38 38 39 39 39 40 39 39 39 39 37 34 36 38 37 37 37 36 35 34 33 31 29 29 28 28 28 29 30 30 28 27 27 28 30 31 32 32
53 52 53 52 51 51 51 50 49 47 47 47 47 47 48 48 49 50 51 52 50 48 48 49 49 48 46 46 45 45 43 41 39 38 37 38 38 40 41 40 41 41 40 39 40 42 42 39 37 37 38 39 41 40 40 40 39 40 40 39 37 36 38 39 39 38 38 37 35 34 34 32 29 29 29 28 29 30 31 31 30 31 32 33 33 33 33 34
54 54 54 53 52 52 52 51 49 48 48 47 46 46 46 47 47 48 49 51 51 46 44 46 47 46 44 44 44 42 42 41 40 39 39 39 39 40 41 41 41 40 39 39 42 43 42 39 38 38 39 40 41 41 39 38 39 41 40 39 39 39 40 41 41 40 39 37 36 35 35 33 30 29 29 29 30 31 32 32 33 34 35 36 35 35 35 35
56 56 56 55 54 53 53 51 49 49 48 47 47 46 46 46 46 47 48 51 52 47 43 43 45 45 43 42 42 42 44 43 40 40 39 39 39 40 40 41 41 40 39 40 43 45 42 39 39 40 40 41 42 41 39 38 41 43 41 40 40 41 41 42 42 41 40 38 36 35 36 35 33 32 30 29 31 33 33 34 35 37 37 37 37 37 37 37
58 58 58 57 56 55 54 52 50 51 50 49 49 48 48 47 47 47 47 51 54 49 45 45 45 46 45 44 43 44 45 42 39 39 39 38 39 40 41 41 41 40 40 42 45 44 41 40 41 42 42 42 42 41 40 41 44 44 41 40 41 41 42 42 42 42 40 38 37 36 36 36 36 36 34 33 34 34 34 35 37 38 38 38 38 38 38 39
60 60 60 60 58 57 55 54 53 52 51 50 50 49 49 48 48 48 48 53 55 51 49 49 46 46 46 45 44 43 43 41 39 39 39 40 41 42 42 43 43 43 43 45 46 44 43 43 43 43 43 43 41 41 42 43 44 44 42 40 40 41 42 42 41 42 41 39 38 37 36 37 38 39 40 40 38 36 35 36 38 38 38 38 38 39 39 40
63 62 62 61 60 59 58 57 55 53 53 52 51 51 50 50 50 49 50 54 54 52 52 51 46 44 44 44 43 42 42 40 40 40 40 42 43 43 44 45 46 47 47 47 47 46 46 45 44 44 44 43 41 42 42 43 43 43 41 40 40 40 41 41 41 42 42 40 38 37 37 39 42 44 45 44 42 41 40 39 39 38 38 38 39 40 41 42
66 65 64 63 62 61 60 59 56 54 53 52 51 51 51 52 51 51 54 55 53 54 54 51 47 44 44 43 43 42 41 41 41 42 43 44 45 46 46 47 48 48 48 49 49 48 47 46 45 44 44 43 42 42 42 42 43 41 40 39 39 39 40 41 42 43 43 41 38 37 38 41 45 48 48 46 45 45 45 44 43 40 39 40 41 42 43 44
67 65 65 65 64 63 62 59 57 56 55 53 53 53 53 53 53 54 56 54 52 55 54 51 49 46 44 43 42 42 42 42 43 43 45 46 47 48 48 48 49 49 50 50 49 47 47 46 45 44 43 43 41 40 40 40 40 39 39 39 39 40 41 42 43 44 44 41 39 40 41 44 48 49 48 48 48 48 48 48 47 46 45 45 46 46 47 48
68 66 66 67 66 66 64 60 58 59 58 56 56 56 55 55 57 57 56 54 54 56 54 51 49 46 44 43 42 42 42 43 44 45 46 47 48 48 48 48 49 50 50 49 46 45 45 44 43 43 41 40 38 37 37 37 38 38 39 40 40 42 43 44 45 44 43 41 41 42 44 47 49 48 47 48 48 49 49 49 50 50 51 52 52 52 52 53
69 69 69 69 68 67 65 62 61 62 61 59 59 58 56 58 61 60 58 57 57 57 55 52 50 48 47 45 44 44 44 45 47 48 48 49 49 49 49 49 49 48 47 46 43 43 42 41 40 40 38 36 36 35 35 37 38 40 41 42 43 44 45 45 44 43 42 42 42 44 47 50 50 48 48 48 48 49 50 50 51 52 53 54 54 55 55 55
67 68 68 68 67 66 65 64 64 64 63 63 62 60 59 61 63 62 60 59 58 57 56 54 52 51 50 48 47 46 48 49 51 52 52 52 52 51 51 50 48 45 43 43 42 41 41 39 37 37 36 35 35 36 37 39 40 41 42 43 44 44 43 43 42 43 44 43 44 46 49 50 50 50 50 50 50 50 50 51 52 53 54 54 54 54 54 55
65 64 63 62 60 59 59 61 63 64 64 64 63 62 62 63 63 63 63 60 56 55 55 54 54 53 52 51 50 49 51 53 54 55 55 54 52 51 50 48 46 44 41 41 40 39 39 37 35 35 35 35 36 37 38 40 41 41 42 43 43 41 40 41 43 44 45 46 48 50 51 51 51 52 52 52 53 52 52 53 53 53 54 53 53 53 54 55
64 61 60 58 54 52 54 56 60 64 64 63 64 64 62 61 61 62 62 60 57 56 55 55 55 54 54 52 51 51 52 53 53 54 54 53 51 50 47 44 43 42 41 39 39 39 39 37 35 34 35 35 37 38 38 39 41 41 41 41 40 38 39 42 44 46 48 51 52 52 53 52 52 54 54 54 55 55 55 55 54 54 53 53 53 54 55 56
65 64 62 57 52 50 51 51 54 58 59 61 64 62 57 56 58 58 58 59 58 56 55 56 55 54 53 52 52 51 50 50 51 51 49 48 48 46 43 41 40 41 40 40 40 41 41 39 37 36 37 37 37 37 38 38 39 40 39 38 37 39 41 44 47 49 50 53 54 54 55 55 56 57 57 56 57 57 56 56 55 54 53 53 54 55 56 56
59 60 59 54 50 49 48 48 49 51 54 58 62 57 53 53 54 54 56 57 57 57 57 57 56 55 54 54 53 50 48 50 50 48 45 44 44 43 40 40 40 40 41 42 43 43 42 42 41 40 39 38 38 38 39 39 39 38 37 38 39 42 45 47 49 50 52 55 58 58 58 57 58 59 58 58 58 57 56 54 53 53 53 54 54 55 56 56
52 55 54 50 49 51 49 48 49 51 55 59 61 56 51 51 51 51 54 55 55 56 56 54 54 54 53 53 51 49 50 50 48 46 45 43 43 43 42 42 42 42 43 44 45 45 45 45 45 44 42 41 41 41 40 39 37 37 39 41 43 46 48 49 51 53 55 59 61 61 61 60 59 60 59 57 55 53 53 53 53 54 55 54 54 54 56 58
55 56 54 50 51 53 51 50 53 56 59 61 60 56 52 51 51 50 51 51 52 53 52 51 51 51 50 49 49 49 50 49 46 45 45 44 44 44 43 43 44 44 45 46 47 47 47 47 46 46 45 44 44 41 39 38 38 40 43 45 46 48 50 51 54 57 59 61 62 63 64 62 62 63 60 55 52 51 52 53 54 54 54 54 55 57 61 63
57 57 54 52 53 54 53 56 60 62 64 62 60 58 56 54 53 53 53 53 53 53 52 51 50 50 49 49 50 51 51 50 48 47 47 46 45 44 44 44 45 46 47 47 48 47 47 48 48 47 47 46 43 41 40 41 42 44 45 47 48 49 52 55 58 60 60 61 61 62 64 66 66 65 60 55 53 53 53 53 54 54 55 57 60 64 67 68
54 56 54 54 56 56 58 63 64 65 67 66 63 62 61 59 57 57 57 56 55 55 54 53 52 52 52 52 52 52 51 51 50 49 49 48 47 45 45 45 45 46 46 47 47 48 48 49 49 48 47 45 44 43 43 44 45 47 48 49 51 53 56 59 60 60 59 60 61 62 67 69 66 61 56 54 55 55 55 55 56 58 61 64 68 70 71 71
56 55 53 54 56 58 62 65 64 65 67 66 65 67 67 65 62 61 59 58 58 57 55 55 55 55 55 54 53 52 50 50 51 51 50 49 47 45 45 44 44 44 46 47 47 47 48 49 48 48 47 46 46 47 47 47 49 50 50 52 54 57 58 58 59 59 59 63 65 64 66 66 60 55 54 56 57 57 58 59 61 63 66 69 72 73 72 73
62 59 56 55 56 58 62 64 64 64 64 64 65 68 69 68 66 64 61 60 59 58 57 57 57 56 55 54 53 52 51 51 52 52 51 51 50 48 48 48 48 48 48 48 47 46 47 47 47 47 49 50 51 51 51 51 51 52 53 55 57 58 58 58 59 59 63 67 65 61 62 61 56 56 58 59 59 60 62 64 65 66 69 71 73 73 74 75
63 60 59 59 57 58 61 63 64 65 64 62 62 63 65 65 64 62 60 59 58 58 58 58 58 58 56 55 53 52 52 53 54 54 53 52 51 51 51 52 53 52 50 48 46 46 47 48 49 50 52 54 55 55 53 52 52 54 56 57 57 58 58 59 59 62 67 69 63 59 62 61 57 58 61 62 62 63 65 66 66 68 70 72 73 75 76 77
63 58 57 59 59 59 61 62 64 65 66 65 62 61 62 62 61 61 60 60 60 60 60 60 60 59 57 56 55 55 55 55 56 57 56 55 54 54 54 54 54 53 51 50 49 49 50 51 52 52 54 55 55 56 57 57 58 60 60 60 60 60 60 61 64 67 68 66 62 59 60 61 59 60 63 66 65 65 66 67 68 70 72 73 74 76 77 78
61 59 56 57 60 61 61 61 62 63 64 64 63 62 62 63 63 64 64 64 63 62 63 63 63 61 58 56 56 56 56 55 55 54 54 54 54 55 55 54 54 54 53 52 51 51 51 52 52 53 55 56 57 59 60 60 61 61 60 62 63 64 64 65 68 68 63 61 62 61 61 64 62 61 66 69 68 68 69 69 70 71 72 74 75 76 76 76
57 57 55 54 55 57 56 57 60 61 62 63 63 63 63 63 63 64 65 65 64 64 64 66 65 62 59 55 54 54 52 51 50 49 49 50 51 51 51 51 51 51 52 52 51 52 54 55 56 58 61 62 62 62 61 59 58 57 59 63 64 65 67 67 67 66 63 65 68 66 66 66 62 62 68 71 69 70 70 69 70 70 71 73 74 74 74 73
58 57 55 53 53 53 53 54 56 58 61 62 62 62 62 61 61 60 60 62 63 63 65 66 64 59 55 52 51 51 50 49 48 47 47 48 49 50 51 52 52 52 53 54 54 56 59 61 62 62 64 64 63 63 62 60 60 61 62 65 66 68 70 70 68 67 68 69 69 68 69 67 62 64 70 70 69 68 67 68 70 70 72 73 73 73 73 73
61 60 58 57 55 54 54 55 56 57 57 59 60 60 60 60 59 57 57 58 59 60 60 59 56 52 49 49 50 50 49 49 50 50 50 51 52 53 54 55 56 56 57 58 59 60 61 61 62 62 62 63 64 63 61 61 62 64 66 68 70 72 72 72 70 69 68 68 66 67 70 67 63 65 68 69 69 69 69 70 72 72 74 74 73 73 72 71
64 63 61 61 61 59 57 55 56 57 56 57 58 58 58 59 58 57 56 56 55 55 54 53 52 51 51 53 53 52 51 52 54 55 55 55 55 55 55 56 57 58 59 60 61 63 63 64 65 64 64 66 66 64 63 62 62 65 71 74 74 74 73 72 71 68 66 66 66 69 70 66 64 66 68 69 70 70 71 72 72 73 74 73 72 71 70 69
65 66 65 64 64 64 63 61 59 58 56 55 54 54 56 59 60 60 59 58 57 57 57 56 56 57 58 58 57 56 55 56 57 58 58 57 57 57 58 58 59 59 61 63 64 65 65 66 66 66 66 67 66 66 65 63 64 70 76 75 71 69 69 69 69 66 63 63 65 67 67 65 65 68 69 69 70 71 72 72 72 73 72 71 69 68 68 67
Wind_Direction
225 225 225 226 227 228 229 230 231 233 234 236 238 240 242 245 249 253 257 260 263 266 269 271 273 274 272 269 264 259 255 252 250 249 250 250 251 253 255 258 260 263 266 269 271 274 276 279 281 283 285 287 288 290 291 293 294 295 298 300 301 302 301 300 298 295 292 292 294 299 303 306 309 311 312 310 306 303 303 305 308 311 312 311 312 314 315 316
227 226 227 227 229 230 231 232 233 235 237 239 240 242 245 248 251 254 257 260 262 265 269 271 273 274 272 270 266 263 259 257 255 254 254 256 257 259 261 262 264 266 269 271 273 276 277 279 282 284 285 286 288 289 291 292 294 296 298 299 300 300 298 296 293 289 287 287 290 294 299 302 306 309 309 307 303 302 303 305 309 312 312 313 314 314 314 313
229 228 228 229 230 231 232 234 235 237 239 241 242 245 247 249 252 254 257 260 263 267 270 272 273 273 272 270 267 264 261 260 258 258 258 259 261 262 264 265 267 268 270 273 275 276 278 280 281 283 285 286 287 289 291 292 294 295 297 298 298 298 296 293 288 283 282 282 286 290 295 299 304 307 307 305 302 302 305 306 309 312 311 313 315 315 314 311
230 230 230 231 231 232 233 235 237 239 241 243 244 246 248 250 252 255 258 261 265 268 271 273 273 272 270 269 266 264 262 260 260 261 262 262 264 265 266 268 269 271 272 274 275 277 278 280 281 283 284 285 287 288 290 291 293 295 296 297 296 295 292 289 284 280 278 279 283 287 293 298 304 306 304 303 301 302 306 306 307 309 309 312 313 313 313 310
230 231 231 232 232 233 234 236 238 240 242 244 246 247 248 250 252 255 258 261 265 268 271 272 272 271 269 267 266 265 263 261 261 263 264 265 266 268 269 270 272 273 274 276 277 278 279 280 281 282 283 285 286 288 289 291 293 294 294 294 294 292 289 287 283 280 280 280 283 287 292 298 303 304 303 302 301 303 306 306 306 306 307 310 312 312 311 309
230 231 232 232 233 234 235 237 239 241 242 244 246 247 248 250 252 255 258 262 265 268 270 271 271 269 267 265 264 264 263 262 263 265 265 267 269 270 272 273 274 275 276 278 278 279 280 281 282 282 284 285 286 287 288 289 291 292 292 293 292 290 289 289 285 284 284 285 287 290 294 299 303 303 302 302 303 304 305 304 305 306 307 309 310 310 310 308
231 232 232 233 234 235 236 238 240 241 243 244 246 248 249 251 254 257 260 263 266 268 269 269 268 266 264 263 262 263 263 262 264 266 267 269 271 273 274 275 277 278 278 279 280 281 281 282 283 283 284 285 286 287 287 288 289 291 291 292 292 290 291 292 290 288 289 290 291 293 296 299 302 302 301 302 303 303 303 303 305 307 308 309 308 307 307 305
233 233 234 235 236 237 238 239 241 242 244 246 247 250 252 254 257 259 262 264 266 268 268 267 266 263 262 261 261 261 262 262 263 265 268 269 271 273 276 278 279 279 280 281 281 281 282 283 283 284 285 286 287 287 288 288 289 289 290 291 290 289 290 292 291 291 292 292 293 294 296 298 300 299 298 300 302 301 300 302 304 307 309 309 308 307 305 301
234 235 236 237 237 239 240 241 242 244 246 248 250 252 254 256 259 261 263 265 266 267 266 265 263 261 260 259 260 261 262 264 265 266 269 271 273 275 277 279 280 280 280 280 280 281 281 282 283 284 285 287 288 288 288 288 287 286 285 286 286 287 288 288 288 290 291 292 292 294 294 296 297 295 294 297 299 298 298 301 303 306 307 307 307 306 304 301
235 236 237 238 239 240 241 243 244 246 248 250 252 254 256 258 260 262 264 265 265 264 263 262 261 260 259 259 260 261 263 266 268 270 272 273 275 277 279 280 279 278 277 277 278 278 280 281 282 284 285 286 286 286 286 285 284 281 280 279 280 283 284 284 285 287 288 289 289 290 291 293 294 292 292 295 296 295 297 299 302 303 304 304 303 301 300 300
238 238 239 240 241 242 243 245 246 248 250 251 253 255 257 258 260 262 264 264 263 261 260 259 259 259 259 260 261 262 265 268 270 272 274 276 278 279 279 278 276 276 276 276 277 278 279 280 280 281 281 282 282 282 282 282 281 279 278 277 278 279 280 281 283 284 285 285 285 285 287 290 289 288 291 295 294 294 296 298 300 300 300 299 298 297 296 298
241 241 241 242 243 244 245 247 248 249 251 252 254 255 257 258 261 262 263 262 261 259 258 258 258 258 259 261 262 264 268 270 271 274 275 277 278 278 277 275 274 274 276 276 277 278 278 279 279 279 279 279 279 279 279 279 279 278 278 277 278 279 279 280 281 282 283 283 282 282 283 286 287 288 291 294 292 292 293 296 298 297 296 295 295 296 297 300
243 243 244 245 245 246 247 248 249 251 252 253 255 256 257 259 260 261 261 260 259 258 257 257 258 259 261 262 264 267 269 271 272 274 275 276 276 276 274 273 273 274 275 276 276 277 277 278 278 278 278 278 277 278 278 277 278 278 278 278 278 278 279 280 282 283 282 280 280 279 280 284 287 289 292 292 290 289 292 294 294 293 292 292 293 295 298 301
244 245 245 246 247 248 249 250 251 252 253 255 256 257 258 259 260 259 259 258 258 258 258 258 260 261 263 264 266 268 270 271 273 273 274 274 274 272 272 272 272 273 275 275 276 276 276 276 276 277 277 278 278 279 279 278 278 278 278 277 276 276 279 282 284 284 282 280 278 278 278 281 286 289 292 291 289 291 294 295 292 290 289 289 291 294 296 299
245 245 246 247 248 250 251 252 253 254 255 256 257 258 258 259 259 258 258 258 258 259 260 260 261 263 264 265 267 268 270 271 271 272 272 271 271 270 271 272 273 274 274 275 276 276 276 275 275 276 277 278 280 280 280 279 279 279 278 276 276 278 282 284 284 282 280 279 278 278 277 278 283 288 291 291 291 294 296 294 291 289 289 289 292 293 294 296
245 246 247 248 249 250 251 253 254 255 256 256 257 258 259 259 259 258 258 259 259 260 261 262 263 265 265 266 267 268 269 269 270 270 270 269 269 270 271 272 273 274 274 274 274 275 275 275 275 276 278 279 281 281 279 278 279 278 277 277 279 281 282 282 282 281 279 278 278 277 278 279 282 286 289 291 294 297 297 295 293 292 291 293 294 294 294 294
245 246 247 248 249 250 251 253 254 255 256 257 258 259 259 259 259 259 259 260 260 261 262 263 265 265 266 266 267 267 267 267 268 268 268 268 269 270 271 272 273 273 274 274 273 274 274 274 276 277 279 281 282 280 277 277 278 277 277 280 281 282 281 281 280 279 278 278 278 280 283 284 286 288 289 292 295 296 294 294 293 292 292 293 293 293 293 293
245 246 247 248 249 250 251 252 254 255 256 257 258 259 259 259 260 260 260 260 261 262 263 264 264 265 266 266 266 265 265 266 267 267 268 269 269 270 271 272 272 272 273 273 273 274 274 275 276 277 280 283 280 276 275 277 278 278 280 282 282 282 283 284 282 278 277 278 280 285 287 288 290 290 289 291 294 293 289 288 287 287 287 288 287 287 288 290
246 247 248 249 249 250 251 252 254 255 256 257 258 258 259 259 260 260 260 261 261 262 263 263 264 265 266 266 265 265 265 266 266 267 268 268 269 270 270 271 271 271 272 273 274 274 274 275 274 277 282 279 274 273 276 278 280 281 282 282 282 282 285 288 283 279 279 280 282 286 286 288 291 289 286 288 290 287 284 282 281 281 282 282 282 283 285 286
246 247 248 249 250 251 252 252 253 255 256 257 257 258 259 259 260 260 260 260 261 262 262 263 264 265 265 265 266 266 265 265 266 267 267 268 269 268 268 269 270 271 272 274 273 273 274 274 275 280 279 273 272 274 278 280 281 281 281 281 282 284 286 287 282 280 280 280 281 282 282 285 287 284 282 284 284 282 279 277 277 277 278 281 283 285 286 287
247 247 248 249 249 250 251 252 253 254 255 256 257 258 259 259 259 260 260 260 260 261 261 263 263 263 265 265 265 265 265 265 266 266 267 267 267 267 268 269 270 271 273 273 272 273 274 273 277 278 273 271 273 277 279 280 280 280 280 280 281 283 284 282 279 279 278 278 279 279 278 281 281 279 280 281 280 278 277 276 277 278 280 284 287 288 288 288
246 247 248 249 249 250 251 252 253 254 255 256 257 258 258 259 259 260 260 259 259 260 261 261 262 263 263 264 265 265 265 265 265 265 265 265 266 268 269 269 271 272 272 272 273 274 273 274 276 274 271 274 277 278 279 279 279 280 280 279 279 282 282 279 277 276 276 277 279 279 278 278 276 276 278 279 279 279 279 280 282 283 285 288 289 290 289 288
245 246 248 248 249 250 251 251 252 254 255 256 256 257 258 259 259 260 260 259 258 258 260 261 261 262 262 263 264 265 264 264 264 264 264 265 266 268 269 270 271 271 271 273 274 273 273 274 274 273 274 277 277 278 279 279 279 279 279 278 281 283 280 278 277 277 277 277 279 280 279 277 274 275 277 278 280 281 282 284 285 287 288 288 288 288 287 286
245 246 247 248 249 250 250 251 252 253 254 255 256 257 258 258 259 260 260 260 258 257 258 260 260 260 261 262 262 262 263 263 263 263 264 266 267 269 270 270 270 271 272 274 273 272 272 273 273 275 276 277 277 277 278 278 278 278 278 280 282 281 278 277 278 277 276 276 276 278 280 279 276 276 277 278 279 280 281 283 285 287 287 287 287 286 285 284
244 245 246 247 248 249 250 251 251 252 253 254 256 256 257 258 259 259 260 260 258 255 255 258 260 260 259 259 260 261 262 262 263 265 266 267 268 269 269 270 270 271 273 273 272 271 271 273 275 276 276 276 276 277 278 279 278 276 277 280 281 279 278 277 277 276 275 275 276 277 280 282 279 275 276 278 279 278 279 282 284 285 286 286 286 286 285 284
244 245 246 247 247 249 250 251 251 252 253 254 255 255 256 257 258 259 260 260 258 255 253 254 256 258 258 258 260 261 262 263 265 267 268 268 269 269 269 269 270 271 272 272 271 270 273 276 276 275 274 275 275 277 279 278 275 274 276 279 280 279 278 277 276 275 273 273 275 276 279 284 285 280 276 275 273 274 277 281 283 284 285 286 286 286 285 284
245 245 246 246 247 248 249 250 251 252 253 253 254 255 256 256 258 259 261 261 258 255 254 252 252 256 258 259 260 262 263 265 266 267 267 268 268 268 268 269 270 270 271 270 269 271 275 276 275 274 275 275 276 277 277 275 274 275 278 279 279 278 277 276 274 273 272 272 274 276 278 285 290 287 282 276 271 273 277 280 281 283 285 286 285 285 285 284
245 245 246 246 247 248 248 249 250 251 251 252 254 255 256 257 258 259 261 262 259 256 256 254 252 254 257 259 260 262 264 266 267 267 268 268 267 267 268 269 270 269 269 268 269 272 274 274 274 274 274 275 276 276 275 274 275 277 278 278 277 276 274 274 273 271 271 272 275 278 280 285 290 289 284 281 279 279 279 280 282 284 284 284 284 285 284 283
245 245 246 247 247 248 248 249 250 250 251 252 254 255 256 258 258 259 260 260 259 257 257 256 255 255 256 258 260 261 263 265 266 267 267 267 267 268 269 269 269 269 269 269 270 271 272 273 273 273 273 275 275 274 274 275 276 277 277 277 276 274 273 272 271 271 271 273 278 281 283 286 288 286 284 285 286 286 285 285 285 285 284 284 284 284 283 282
244 245 246 248 248 248 249 250 250 250 251 253 254 255 256 257 258 259 259 259 259 259 259 259 258 257 257 259 261 263 264 264 265 266 267 267 267 268 268 268 268 269 269 269 269 270 271 272 271 272 272 273 272 273 274 275 275 276 276 275 273 271 271 270 270 270 270 276 282 283 283 283 283 284 286 288 290 291 292 292 291 289 287 285 284 283 282 282
245 246 247 249 249 249 249 250 250 251 251 252 253 254 255 256 256 256 257 260 261 261 261 262 261 260 261 262 264 265 266 266 266 266 267 268 267 267 267 268 268 269 269 269 269 269 269 269 269 269 270 270 271 272 272 273 274 274 273 272 271 270 269 268 268 268 271 279 284 283 280 280 280 283 287 290 293 295 295 295 294 294 292 290 288 286 285 284
246 245 245 247 248 249 249 248 249 250 250 250 251 252 253 254 253 254 257 259 260 261 262 263 264 265 265 265 265 266 266 268 268 268 268 269 268 268 268 269 269 269 269 270 270 269 267 267 266 267 267 269 270 270 271 272 272 271 270 269 268 268 267 267 268 270 275 279 281 280 280 279 280 283 287 290 293 294 293 294 294 294 293 292 290 290 289 289
247 245 244 246 247 249 249 248 248 249 250 251 251 251 252 251 253 254 255 256 258 260 263 264 266 267 267 267 266 266 267 268 268 268 269 270 271 270 270 271 272 271 271 270 267 265 264 263 263 265 266 267 268 270 271 270 269 269 268 268 268 268 268 270 273 274 275 276 276 278 278 279 283 286 288 289 289 289 290 290 291 290 289 289 289 290 291 291
248 248 247 247 248 248 249 248 249 251 252 252 251 250 248 249 253 255 254 254 256 259 262 265 267 268 268 268 267 267 269 269 269 269 269 270 270 271 273 274 273 271 269 266 264 262 262 261 261 263 264 266 267 268 267 266 267 267 267 268 268 269 271 273 274 273 273 274 276 277 278 281 285 288 288 288 287 287 287 286 285 285 285 286 287 288 289 289
247 249 249 249 249 249 250 249 249 251 251 251 250 248 246 249 254 255 254 254 255 258 261 264 265 266 267 268 269 270 272 273 272 271 269 268 268 269 271 272 270 269 268 266 264 262 261 260 259 260 263 265 266 266 266 266 267 267 267 267 269 270 270 270 270 271 274 277 278 279 281 283 285 286 286 286 286 286 285 283 283 283 284 285 286 287 287 286
245 248 249 250 250 251 251 250 250 250 250 249 249 247 247 251 254 255 256 256 256 257 259 261 262 264 266 268 270 273 274 274 273 271 269 267 266 267 268 268 268 268 267 266 264 262 261 260 259 260 263 265 266 267 266 267 267 267 267 268 269 268 266 267 270 274 277 278 279 280 282 283 284 284 284 285 285 285 284 284 284 285 285 286 287 287 287 287
245 247 248 248 249 250 249 249 250 249 247 248 248 248 249 251 252 253 255 256 256 255 256 258 261 263 266 268 270 271 272 272 272 271 268 266 265 265 264 264 265 265 265 263 262 261 261 261 261 262 264 266 266 266 265 266 266 266 268 268 266 265 267 271 274 277 278 278 279 280 280 282 283 283 284 284 284 283 283 284 286 286 287 288 288 289 289 289
244 245 245 244 245 246 245 245 247 247 245 246 248 247 248 250 250 252 253 254 255 255 256 259 261 263 265 267 268 267 267 268 270 269 267 265 264 262 261 261 262 261 260 260 260 260 260 261 262 263 265 265 265 265 266 267 266 267 267 266 265 267 271 273 275 277 279 279 279 279 280 282 283 283 283 282 282 283 284 285 285 286 286 287 288 290 290 291
241 242 240 238 239 240 241 243 245 245 243 244 248 249 249 250 251 251 252 254 256 257 258 260 261 262 263 264 264 262 263 266 267 266 266 265 264 263 261 259 258 258 257 257 257 257 257 259 261 263 264 265 265 266 268 269 267 265 264 264 266 269 272 274 276 278 278 277 278 279 282 285 286 284 282 281 282 284 284 284 284 284 284 285 288 290 291 290
239 240 237 234 235 236 238 242 244 245 244 244 247 249 249 251 252 251 252 255 256 257 258 260 260 260 261 261 259 259 261 264 264 264 265 264 264 264 263 260 258 258 257 256 256 255 256 258 261 264 265 265 267 269 270 268 265 263 263 265 268 270 272 273 274 276 275 275 276 279 283 286 285 281 280 281 283 285 286 286 285 284 284 286 289 290 291 290
235 237 237 235 236 236 238 240 241 242 244 244 245 247 248 249 250 250 251 252 254 256 257 258 258 257 257 257 256 257 259 261 261 262 262 262 263 264 264 262 260 258 256 255 255 256 258 261 263 264 264 265 267 267 266 264 263 264 264 266 269 270 272 273 274 276 276 276 277 278 280 281 280 279 281 285 288 290 290 289 287 286 287 288 289 290 290 289
231 234 236 237 237 236 236 238 239 239 241 243 244 246 247 249 249 248 249 250 252 254 256 257 257 255 256 257 257 257 259 261 262 262 263 264 265 266 266 264 261 258 257 257 258 259 262 264 265 266 266 267 268 268 267 265 264 264 265 268 271 272 274 274 276 277 276 276 277 277 278 279 279 281 286 289 290 291 291 289 287 286 287 288 289 289 289 288
230 232 233 233 233 233 234 235 236 237 240 242 243 243 244 246 247 247 248 249 251 254 257 258 258 258 259 260 260 261 263 265 266 266 266 266 265 264 263 260 256 255 257 258 260 261 263 265 267 268 269 269 269 268 267 266 266 268 271 275 275 276 277 275 274 275 274 276 278 279 279 280 280 282 286 286 284 285 285 285 285 286 286 286 287 287 288 287
231 231 229 228 228 229 230 233 235 236 239 241 241 240 240 241 243 245 246 248 250 253 256 258 259 261 262 261 262 263 263 264 264 265 265 264 262 260 258 255 254 256 258 260 262 263 264 265 266 267 268 269 269 269 270 271 274 275 276 276 275 275 274 273 273 275 276 278 278 276 276 276 276 278 280 280 281 282 283 283 284 284 284 285 285 286 286 286
230 228 227 226 227 228 229 230 233 235 237 238 238 236 236 237 239 242 244 246 249 252 254 256 258 259 259 257 257 258 258 257 258 259 260 259 259 257 256 256 257 260 262 263 264 264 264 264 264 266 268 271 272 272 273 274 275 275 275 275 275 275 274 274 275 276 277 277 275 272 272 272 274 277 279 279 280 281 282 283 283 284 284 284 285 285 285 286
225 227 229 227 228 231 232 232 231 232 235 236 236 235 234 235 237 240 244 247 249 252 253 254 255 254 253 252 252 253 254 254 253 254 256 256 256 256 256 257 259 261 263 264 265 266 266 266 267 268 270 270 271 272 273 274 274 275 276 276 275 274 274 275 275 276 277 276 273 274 275 273 276 279 279 280 281 281 282 284 284 284 284 284 285 285 285 286
226 230 232 231 232 234 235 235 233 232 233 235 237 236 235 236 238 242 246 249 250 251 251 252 252 251 250 250 251 252 252 251 251 252 254 255 255 256 257 259 261 262 264 266 267 267 267 267 268 268 268 269 270 271 273 275 275 276 275 275 275 275 276 277 277 279 278 273 272 276 276 275 279 282 281 281 282 284 285 285 284 283 283 284 284 284 285 285
232 233 231 231 235 237 237 237 236 235 234 234 235 237 237 238 240 243 245 248 249 249 249 249 250 250 250 250 251 250 249 249 251 254 255 255 255 256 258 260 261 262 262 262 263 264 264 266 268 269 270 272 272 272 271 270 269 268 269 271 274 276 276 276 275 276 274 270 272 276 276 277 283 284 281 283 284 285 285 283 282 282 283 284 284 284 285 285
235 235 233 233 237 240 240 239 237 237 236 235 236 237 237 238 239 240 242 243 244 245 245 246 246 245 245 246 247 247 247 249 252 254 254 254 254 254 254 255 256 257 258 260 262 264 265 267 269 269 269 270 270 270 267 264 263 263 265 270 273 273 273 273 273 274 272 271 274 277 277 280 284 283 282 284 284 283 282 281 282 284 284 284 284 284 285 284
237 236 234 234 238 241 242 240 238 236 236 236 237 237 237 237 238 238 239 239 241 241 241 241 241 241 244 246 248 249 251 254 255 254 251 250 249 250 251 252 254 257 260 262 264 264 264 265 267 266 265 265 267 266 263 263 263 263 267 271 272 272 273 275 276 276 274 275 277 278 278 281 284 283 283 282 281 281 282 283 284 284 284 284 284 284 284 284
240 240 238 235 236 238 240 240 238 235 234 235 236 237 237 237 238 238 239 238 239 239 239 239 241 246 249 251 253 255 256 256 254 252 249 246 246 248 250 252 255 258 261 262 263 263 262 263 264 263 261 262 265 264 261 261 261 263 270 275 274 274 277 278 277 276 277 279 280 279 280 283 284 282 280 280 281 282 283 283 283 283 283 284 283 283 283 283
237 239 240 240 238 237 237 238 238 236 234 234 236 238 239 240 240 240 241 242 242 243 244 245 249 253 255 256 258 258 256 253 251 250 248 247 249 251 253 255 258 260 261 261 261 261 262 261 261 260 259 260 262 261 260 259 257 262 272 276 274 275 278 278 277 278 280 282 280 280 281 282 281 279 278 280 281 281 281 281 282 282 282 282 282 282 282 282
Height
5847 5848 5849 5850 5852 5852 5854 5854 5855 5856 5857 5858 5859 5860 5860 5862 5862 5862 5864 5864 5864 5865 5866 5866 5866 5866 5867 5868 5868 5868 5868 5868 5868 5868 5868 5868 5868 5869 5869 5869 5869 5870 5870 5870 5870 5870 5870 5870 5870 5870 5870 5870 5870 5870 5869 5869 5868 5868 5868 5868 5867 5867 5866 5866 5866 5866 5866 5866 5866 5866 5865 5864 5864 5864 5863 5862 5859 5858 5858 5860 5860 5860 5860 5860 5860 5860 5860 5860
5845 5846 5847 5848 5850 5850 5852 5852 5854 5854 5855 5856 5857 5858 5859 5860 5860 5861 5862 5862 5863 5864 5864 5864 5864 5865 5866 5866 5866 5866 5866 5866 5866 5867 5867 5867 5867 5868 5868 5868 5868 5868 5868 5868 5868 5868 5868 5868 5868 5868 5868 5868 5868 5868 5868 5867 5866 5866 5866 5866 5865 5865 5864 5864 5864 5864 5864 5864 5864 5864 5864 5863 5862 5862 5862 5860 5858 5856 5856 5858 5858 5859 5859 5859 5859 5859 5859 5858
5843 5844 5845 5846 5848 5848 5850 5850 5852 5852 5854 5854 5856 5856 5857 5858 5858 5860 5860 5860 5861 5862 5862 5862 5863 5864 5864 5864 5864 5864 5865 5865 5865 5865 5865 5866 5866 5866 5866 5866 5866 5866 5866 5866 5866 5866 5866 5866 5866 5866 5866 5866 5866 5866 5866 5865 5864 5864 5864 5863 5862 5862 5862 5862 5862 5862 5862 5862 5862 5862 5862 5861 5860 5860 5860 5859 5856 5854 5854 5855 5856 5857 5857 5857 5857 5857 5857 5857
5841 5842 5843 5844 5845 5846 5848 5848 5850 5850 5852 5852 5854 5854 5855 5856 5856 5857 5858 5858 5859 5860 5860 5860 5860 5861 5862 5862 5862 5862 5863 5863 5863 5864 5864 5864 5864 5864 5864 5864 5864 5864 5864 5864 5864 5864 5864 5864 5864 5864 5864 5864 5864 5864 5863 5862 5862 5862 5862 5860 5860 5860 5860 5860 5860 5860 5860 5860 5860 5860 5860 5859 5858 5858 5858 5857 5855 5853 5854 5854 5854 5854 5854 5854 5854 5854 5854 5854
5838 5840 5840 5842 5842 5844 5845 5846 5847 5848 5849 5850 5851 5852 5852 5854 5854 5855 5856 5856 5857 5858 5858 5858 5858 5859 5860 5860 5860 5860 5860 5861 5861 5861 5861 5862 5862 5862 5862 5862 5862 5862 5862 5862 5862 5862 5862 5862 5862 5862 5862 5862 5862 5862 5861 5860 5860 5859 5859 5858 5858 5858 5858 5858 5858 5858 5858 5858 5858 5858 5858 5858 5856 5856 5855 5854 5854 5852 5852 5852 5852 5852 5852 5852 5852 5852 5852 5852
5836 5837 5838 5839 5840 5842 5842 5844 5844 5846 5846 5848 5848 5849 5850 5851 5852 5852 5853 5854 5854 5855 5856 5856 5856 5856 5857 5857 5858 5858 5858 5858 5859 5859 5859 5859 5859 5860 5860 5860 5860 5860 5860 5860 5860 5860 5859 5860 5859 5859 5859 5859 5859 5859 5859 5858 5858 5856 5856 5856 5856 5856 5855 5856 5856 5856 5856 5856 5856 5856 5856 5856 5854 5853 5852 5852 5851 5850 5850 5850 5850 5850 5850 5850 5850 5850 5850 5849
5832 5834 5835 5836 5838 5838 5840 5841 5842 5842 5844 5844 5846 5846 5848 5848 5849 5850 5850 5852 5852 5852 5852 5853 5854 5854 5854 5855 5855 5856 5856 5856 5857 5856 5856 5857 5857 5858 5858 5858 5858 5858 5858 5858 5857 5857 5856 5856 5856 5856 5856 5856 5856 5856 5856 5856 5855 5854 5854 5854 5854 5854 5853 5854 5854 5854 5854 5854 5854 5854 5853 5853 5852 5850 5849 5848 5849 5848 5848 5847 5848 5848 5848 5848 5848 5848 5848 5847
5830 5831 5832 5834 5834 5836 5837 5838 5839 5840 5841 5842 5843 5844 5844 5845 5846 5847 5848 5848 5849 5850 5850 5850 5851 5851 5852 5852 5852 5853 5852 5854 5854 5854 5854 5855 5855 5855 5855 5855 5855 5855 5855 5854 5854 5854 5854 5854 5854 5854 5854 5854 5854 5854 5854 5853 5853 5852 5852 5852 5852 5852 5852 5852 5851 5851 5852 5852 5852 5852 5850 5850 5850 5848 5846 5846 5846 5846 5846 5846 5846 5846 5846 5845 5846 5846 5846 5845
5826 5828 5829 5830 5832 5832 5834 5835 5836 5837 5838 5839 5840 5840 5841 5842 5843 5844 5844 5846 5846 5846 5846 5847 5848 5848 5849 5850 5850 5850 5850 5851 5852 5852 5852 5852 5852 5852 5852 5852 5852 5852 5852 5852 5852 5851 5851 5851 5850 5850 5850 5850 5850 5850 5850 5851 5851 5850 5850 5850 5850 5850 5850 5850 5849 5848 5849 5849 5848 5848 5848 5848 5848 5846 5844 5844 5844 5844 5844 5844 5843 5844 5844 5843 5842 5842 5842 5842
5822 5824 5826 5826 5828 5829 5830 5832 5832 5834 5834 5836 5836 5837 5838 5839 5840 5840 5841 5842 5842 5843 5844 5844 5844 5846 5846 5847 5848 5848 5847 5848 5849 5849 5850 5850 5850 5850 5850 5850 5850 5850 5849 5849 5848 5848 5848 5848 5848 5848 5848 5848 5848 5848 5848 5848 5849 5848 5849 5848 5848 5848 5848 5847 5847 5846 5846 5846 5846 5846 5846 5846 5846 5844 5842 5842 5842 5841 5841 5842 5841 5841 5841 5840 5840 5840 5839 5838
5819 5820 5822 5823 5824 5826 5826 5828 5829 5830 5831 5832 5832 5834 5834 5836 5836 5837 5838 5838 5839 5840 5840 5841 5842 5842 5843 5844 5846 5844 5844 5846 5846 5846 5846 5846 5846 5846 5846 5846 5846 5846 5846 5846 5846 5846 5846 5846 5846 5846 5846 5846 5846 5846 5846 5846 5846 5846 5846 5846 5846 5846 5846 5845 5845 5844 5844 5844 5844 5844 5844 5844 5843 5841 5840 5840 5840 5838 5839 5840 5840 5839 5838 5838 5838 5837 5836 5836
5816 5816 5818 5819 5820 5822 5822 5824 5825 5826 5827 5828 5828 5830 5830 5832 5832 5834 5834 5835 5836 5836 5837 5838 5838 5840 5840 5842 5842 5842 5842 5842 5842 5842 5842 5842 5843 5843 5843 5843 5843 5843 5843 5842 5842 5842 5842 5842 5842 5842 5843 5844 5844 5843 5843 5843 5843 5844 5844 5844 5844 5844 5844 5842 5842 5842 5842 5841 5840 5841 5842 5842 5840 5838 5838 5838 5836 5836 5836 5837 5838 5836 5836 5835 5834 5834 5834 5833
5811 5812 5814 5816 5816 5818 5819 5820 5821 5822 5823 5824 5824 5826 5827 5828 5828 5830 5830 5831 5832 5833 5834 5834 5836 5836 5837 5838 5839 5838 5839 5839 5839 5839 5839 5839 5840 5840 5840 5840 5840 5840 5840 5840 5840 5840 5840 5840 5840 5840 5840 5840 5840 5840 5840 5840 5840 5840 5840 5840 5840 5840 5840 5840 5839 5840 5838 5838 5838 5838 5840 5841 5838 5835 5835 5835 5834 5833 5834 5834 5835 5834 5834 5832 5832 5831 5830 5830
5806 5808 5810 5811 5812 5814 5814 5816 5816 5818 5818 5820 5820 5822 5823 5824 5825 5826 5826 5828 5828 5830 5830 5832 5832 5833 5834 5836 5836 5835 5836 5836 5836 5836 5836 5836 5836 5836 5836 5836 5836 5836 5836 5836 5836 5836 5836 5836 5836 5837 5837 5837 5838 5837 5836 5836 5836 5836 5836 5837 5837 5838 5838 5838 5836 5836 5835 5834 5834 5834 5836 5839 5836 5832 5832 5832 5830 5830 5831 5832 5832 5832 5830 5830 5829 5828 5828 5827
5802 5803 5804 5806 5808 5809 5810 5812 5812 5814 5814 5815 5816 5818 5819 5820 5821 5822 5822 5824 5824 5826 5826 5828 5828 5829 5830 5832 5832 5832 5832 5832 5832 5832 5832 5832 5832 5832 5832 5832 5832 5833 5833 5833 5833 5833 5833 5834 5834 5834 5834 5834 5834 5834 5833 5832 5833 5832 5832 5832 5834 5834 5836 5835 5834 5832 5832 5830 5830 5830 5832 5836 5834 5830 5829 5828 5828 5828 5828 5828 5828 5828 5827 5826 5826 5826 5825 5825
5796 5798 5800 5802 5803 5804 5806 5807 5808 5809 5810 5811 5812 5814 5815 5816 5817 5818 5819 5820 5820 5822 5822 5824 5824 5825 5826 5828 5828 5828 5828 5828 5828 5828 5828 5828 5828 5829 5829 5829 5829 5829 5830 5830 5830 5830 5830 5830 5830 5831 5832 5832 5832 5830 5829 5829 5830 5828 5828 5828 5830 5832 5832 5832 5830 5829 5828 5826 5826 5827 5828 5832 5832 5828 5826 5825 5826 5826 5825 5825 5825 5824 5824 5824 5824 5823 5822 5822
5792 5794 5796 5797 5798 5800 5801 5802 5804 5804 5806 5807 5808 5810 5810 5812 5812 5814 5815 5816 5816 5818 5818 5819 5820 5820 5822 5824 5824 5824 5824 5824 5824 5824 5824 5825 5825 5826 5826 5826 5826 5826 5826 5826 5826 5826 5826 5826 5827 5828 5828 5829 5829 5826 5824 5826 5826 5825 5824 5826 5827 5828 5829 5830 5828 5826 5824 5822 5822 5824 5825 5828 5829 5826 5822 5822 5824 5824 5822 5822 5822 5822 5822 5821 5821 5820 5820 5820
5788 5789 5790 5792 5794 5796 5796 5798 5799 5800 5801 5802 5804 5805 5806 5807 5808 5810 5810 5812 5812 5814 5814 5815 5816 5816 5818 5819 5820 5820 5820 5820 5820 5820 5820 5821 5822 5822 5822 5822 5822 5822 5822 5823 5823 5823 5823 5823 5824 5824 5826 5826 5824 5822 5820 5822 5823 5822 5822 5822 5823 5824 5825 5826 5826 5822 5820 5819 5819 5820 5821 5824 5826 5822 5818 5820 5821 5821 5820 5820 5819 5819 5818 5818 5818 5818 5818 5818
5782 5784 5786 5788 5789 5790 5792 5793 5794 5796 5796 5798 5799 5800 5802 5802 5804 5805 5806 5807 5808 5809 5810 5810 5811 5812 5814 5814 5814 5816 5816 5816 5816 5816 5816 5817 5818 5818 5818 5818 5818 5819 5819 5820 5820 5819 5819 5820 5820 5822 5824 5822 5819 5818 5818 5820 5820 5820 5819 5818 5819 5820 5822 5823 5821 5818 5816 5816 5817 5818 5817 5819 5822 5819 5816 5817 5818 5818 5818 5818 5817 5816 5816 5816 5816 5816 5816 5816
5778 5780 5781 5782 5784 5786 5786 5788 5790 5790 5792 5793 5794 5796 5796 5798 5798 5800 5802 5802 5804 5804 5804 5806 5806 5808 5808 5810 5810 5811 5812 5812 5812 5812 5812 5813 5814 5814 5814 5814 5815 5816 5816 5816 5815 5815 5816 5815 5817 5820 5820 5816 5814 5815 5816 5816 5816 5816 5816 5816 5816 5816 5818 5820 5816 5814 5812 5812 5814 5815 5814 5816 5818 5814 5814 5814 5815 5814 5814 5814 5814 5814 5814 5813 5813 5812 5812 5812
5773 5774 5776 5778 5779 5780 5782 5783 5784 5786 5786 5788 5790 5790 5792 5793 5794 5794 5796 5798 5798 5799 5800 5801 5802 5803 5804 5804 5806 5806 5806 5807 5808 5808 5809 5810 5809 5810 5810 5811 5812 5812 5812 5811 5810 5812 5811 5811 5816 5817 5814 5812 5812 5812 5812 5812 5812 5812 5812 5812 5812 5813 5814 5814 5812 5810 5810 5808 5809 5811 5810 5812 5812 5810 5810 5812 5812 5811 5810 5810 5811 5810 5810 5810 5810 5809 5809 5808
5768 5770 5771 5772 5774 5776 5776 5778 5780 5780 5782 5783 5784 5786 5786 5788 5788 5789 5790 5792 5794 5794 5794 5796 5796 5798 5800 5800 5800 5801 5802 5802 5804 5804 5805 5806 5806 5806 5806 5807 5808 5808 5808 5806 5807 5808 5806 5808 5812 5812 5808 5808 5809 5808 5808 5808 5808 5808 5808 5808 5808 5810 5810 5808 5808 5806 5806 5804 5804 5806 5806 5808 5808 5806 5806 5807 5806 5806 5806 5806 5806 5806 5806 5806 5806 5806 5806 5806
5762 5764 5766 5768 5769 5770 5772 5773 5774 5776 5777 5778 5780 5780 5782 5782 5783 5784 5784 5784 5788 5790 5790 5790 5792 5793 5794 5794 5796 5796 5796 5798 5800 5800 5801 5802 5802 5802 5802 5803 5804 5802 5802 5803 5804 5802 5802 5805 5808 5806 5805 5806 5804 5804 5804 5804 5804 5804 5804 5803 5804 5806 5804 5802 5804 5802 5802 5800 5800 5800 5800 5802 5804 5802 5803 5802 5802 5802 5801 5801 5802 5802 5802 5802 5802 5802 5802 5802
5757 5759 5760 5762 5764 5765 5766 5768 5770 5771 5772 5773 5774 5776 5776 5777 5778 5778 5778 5778 5780 5784 5785 5785 5786 5788 5790 5790 5790 5790 5792 5794 5795 5796 5798 5798 5798 5798 5798 5799 5798 5798 5799 5800 5799 5797 5797 5800 5802 5802 5802 5800 5800 5800 5800 5800 5800 5800 5799 5800 5800 5802 5800 5798 5798 5798 5798 5796 5797 5796 5795 5796 5800 5799 5799 5799 5798 5798 5797 5797 5798 5798 5798 5798 5798 5798 5798 5798
5752 5753 5754 5757 5758 5760 5762 5763 5766 5766 5767 5769 5770 5770 5772 5772 5772 5772 5772 5770 5772 5779 5782 5780 5780 5782 5784 5785 5786 5787 5787 5789 5791 5792 5793 5794 5794 5794 5794 5794 5793 5794 5796 5795 5793 5792 5793 5796 5798 5798 5797 5796 5795 5796 5796 5797 5796 5795 5795 5796 5796 5796 5796 5794 5794 5794 5792 5792 5792 5792 5790 5791 5794 5796 5795 5796 5794 5793 5793 5794 5794 5794 5794 5794 5794 5794 5794 5794
5746 5748 5749 5751 5753 5754 5756 5759 5761 5761 5762 5764 5764 5766 5766 5767 5768 5767 5768 5764 5766 5773 5777 5777 5776 5776 5779 5780 5782 5782 5782 5784 5788 5788 5788 5789 5788 5788 5788 5788 5789 5790 5790 5790 5788 5786 5789 5793 5793 5792 5792 5792 5790 5791 5793 5793 5790 5790 5792 5793 5792 5792 5791 5790 5790 5789 5788 5788 5788 5788 5786 5786 5788 5790 5792 5792 5790 5789 5790 5790 5790 5790 5789 5790 5789 5789 5788 5788
5740 5742 5743 5745 5747 5748 5751 5754 5756 5756 5758 5759 5760 5761 5761 5762 5762 5762 5763 5759 5759 5767 5770 5772 5772 5772 5774 5776 5777 5778 5777 5780 5784 5783 5784 5784 5784 5784 5783 5784 5785 5786 5786 5784 5782 5782 5786 5788 5787 5786 5786 5786 5786 5787 5788 5787 5785 5786 5788 5788 5788 5787 5786 5786 5786 5784 5784 5783 5782 5782 5784 5784 5784 5784 5786 5786 5786 5786 5787 5786 5786 5786 5785 5785 5784 5784 5784 5783
5734 5736 5736 5739 5742 5743 5746 5748 5750 5750 5752 5753 5754 5756 5756 5758 5758 5758 5758 5754 5754 5761 5763 5764 5768 5770 5770 5772 5772 5773 5774 5776 5778 5778 5779 5779 5778 5778 5778 5779 5780 5780 5780 5778 5778 5780 5781 5781 5782 5782 5782 5782 5782 5782 5782 5781 5780 5782 5782 5783 5782 5782 5781 5781 5781 5780 5780 5778 5778 5778 5780 5780 5779 5778 5778 5779 5780 5782 5784 5782 5782 5781 5780 5780 5780 5779 5778 5778
5728 5729 5731 5733 5735 5738 5740 5742 5744 5745 5746 5748 5750 5750 5752 5752 5752 5754 5752 5749 5750 5754 5754 5757 5763 5766 5766 5767 5768 5769 5770 5772 5772 5772 5774 5773 5773 5774 5774 5774 5774 5774 5774 5774 5774 5775 5776 5776 5777 5777 5776 5778 5778 5777 5776 5776 5776 5777 5778 5778 5778 5777 5776 5776 5776 5776 5775 5774 5774 5776 5777 5776 5774 5772 5772 5773 5775 5776 5776 5778 5778 5777 5776 5775 5774 5774 5773 5772
5720 5723 5725 5726 5730 5732 5734 5737 5739 5739 5740 5742 5744 5744 5746 5746 5748 5747 5744 5744 5748 5746 5746 5752 5757 5760 5762 5762 5764 5764 5766 5767 5767 5767 5767 5768 5768 5768 5768 5768 5768 5768 5768 5768 5768 5770 5770 5770 5771 5772 5772 5772 5772 5772 5772 5772 5772 5772 5773 5772 5772 5772 5771 5771 5770 5770 5770 5769 5771 5773 5772 5771 5768 5766 5766 5768 5769 5769 5768 5769 5770 5770 5770 5770 5769 5768 5768 5767
5715 5718 5719 5720 5724 5726 5728 5732 5734 5734 5734 5736 5738 5738 5740 5740 5740 5738 5737 5741 5744 5740 5742 5746 5750 5754 5757 5758 5759 5760 5760 5761 5762 5762 5762 5762 5762 5762 5762 5763 5762 5762 5762 5762 5764 5764 5764 5764 5766 5766 5766 5766 5767 5768 5768 5768 5768 5768 5768 5768 5767 5766 5766 5766 5766 5766 5766 5766 5768 5768 5766 5766 5764 5762 5763 5762 5762 5763 5762 5761 5760 5762 5762 5762 5762 5762 5761 5761
5708 5711 5712 5714 5717 5719 5722 5727 5728 5726 5728 5730 5730 5732 5734 5732 5730 5730 5734 5738 5737 5734 5738 5741 5744 5748 5751 5752 5754 5754 5755 5756 5756 5756 5756 5755 5755 5756 5757 5757 5757 5756 5756 5758 5758 5758 5758 5759 5759 5760 5760 5762 5762 5762 5763 5764 5764 5764 5763 5763 5762 5762 5761 5760 5761 5762 5762 5762 5762 5761 5760 5759 5758 5760 5760 5760 5758 5758 5756 5756 5754 5754 5753 5752 5752 5752 5752 5752
5700 5702 5704 5706 5710 5712 5716 5720 5720 5718 5721 5723 5724 5724 5726 5722 5720 5726 5731 5731 5730 5731 5734 5736 5738 5742 5744 5746 5748 5749 5750 5750 5750 5750 5749 5749 5749 5750 5750 5751 5752 5751 5751 5752 5752 5752 5752 5753 5754 5754 5756 5756 5756 5758 5758 5758 5758 5758 5758 5758 5757 5756 5756 5756 5758 5758 5758 5757 5757 5756 5754 5754 5754 5756 5756 5756 5754 5754 5752 5752 5750 5750 5748 5746 5746 5745 5745 5744
5692 5694 5696 5700 5703 5706 5710 5712 5712 5713 5714 5714 5716 5716 5714 5712 5714 5721 5723 5724 5727 5728 5729 5732 5733 5734 5736 5738 5740 5742 5742 5742 5742 5743 5743 5743 5743 5744 5744 5744 5744 5745 5745 5745 5745 5746 5746 5748 5750 5750 5750 5752 5752 5752 5752 5752 5752 5752 5752 5752 5752 5752 5752 5754 5753 5752 5751 5752 5752 5752 5750 5750 5751 5752 5751 5750 5748 5748 5748 5747 5746 5744 5743 5742 5741 5741 5740 5740
5684 5687 5690 5693 5696 5700 5703 5704 5705 5706 5706 5706 5706 5704 5703 5706 5712 5714 5715 5720 5724 5724 5726 5726 5727 5728 5729 5730 5732 5734 5734 5734 5736 5736 5736 5736 5737 5738 5738 5738 5738 5738 5739 5739 5740 5741 5742 5743 5745 5745 5746 5746 5746 5746 5746 5746 5746 5746 5746 5746 5746 5748 5748 5748 5746 5745 5745 5746 5746 5746 5746 5746 5747 5746 5745 5744 5742 5742 5742 5740 5740 5738 5738 5737 5736 5736 5736 5734
5677 5681 5684 5686 5692 5695 5696 5698 5698 5698 5698 5698 5694 5692 5696 5704 5707 5708 5710 5714 5717 5719 5720 5720 5720 5722 5722 5724 5726 5726 5727 5727 5728 5728 5728 5730 5730 5732 5733 5733 5733 5734 5734 5734 5734 5735 5736 5737 5739 5740 5740 5741 5741 5742 5742 5742 5741 5741 5741 5741 5742 5744 5742 5740 5740 5740 5740 5738 5740 5742 5741 5742 5742 5740 5740 5739 5738 5736 5735 5734 5732 5732 5732 5731 5730 5730 5728 5726
5671 5674 5677 5682 5688 5689 5690 5691 5691 5690 5690 5688 5684 5685 5694 5700 5700 5703 5706 5706 5708 5712 5713 5713 5714 5716 5718 5718 5720 5721 5721 5720 5720 5720 5722 5723 5724 5726 5728 5729 5729 5729 5730 5730 5730 5730 5730 5731 5733 5734 5735 5736 5736 5736 5736 5736 5736 5736 5736 5738 5738 5736 5735 5734 5734 5735 5734 5732 5734 5736 5736 5736 5736 5734 5734 5733 5732 5730 5728 5728 5726 5725 5725 5724 5723 5722 5720 5720
5666 5667 5670 5677 5681 5682 5684 5685 5684 5684 5684 5680 5676 5682 5691 5692 5694 5697 5698 5698 5701 5704 5706 5707 5710 5711 5712 5712 5714 5716 5715 5714 5714 5714 5716 5717 5718 5720 5724 5724 5724 5725 5726 5725 5724 5725 5726 5726 5728 5728 5730 5730 5731 5731 5730 5730 5730 5732 5732 5732 5732 5730 5729 5730 5728 5729 5729 5726 5728 5730 5732 5731 5729 5728 5727 5726 5725 5723 5722 5722 5721 5720 5718 5717 5716 5715 5714 5714
5659 5658 5662 5671 5674 5675 5678 5679 5678 5678 5675 5670 5670 5678 5685 5686 5688 5690 5690 5692 5694 5696 5698 5702 5704 5704 5706 5706 5708 5708 5708 5708 5709 5710 5710 5712 5713 5715 5718 5718 5720 5720 5720 5720 5720 5720 5720 5721 5722 5724 5725 5726 5726 5725 5725 5726 5726 5727 5726 5726 5726 5724 5724 5724 5723 5724 5723 5720 5720 5723 5724 5724 5723 5722 5720 5718 5720 5718 5716 5716 5715 5714 5712 5711 5710 5709 5708 5707
5650 5650 5656 5666 5668 5668 5673 5673 5670 5668 5664 5664 5668 5674 5678 5680 5682 5684 5685 5686 5688 5689 5692 5695 5698 5698 5700 5700 5702 5702 5702 5702 5704 5704 5705 5706 5708 5709 5711 5713 5714 5715 5715 5715 5714 5714 5715 5716 5717 5718 5719 5719 5720 5720 5720 5721 5720 5720 5720 5720 5720 5718 5718 5718 5718 5718 5716 5714 5714 5714 5714 5718 5716 5712 5711 5712 5714 5712 5710 5710 5708 5706 5706 5704 5703 5702 5700 5699
5642 5644 5652 5660 5660 5663 5666 5662 5659 5658 5656 5660 5664 5668 5670 5672 5674 5676 5678 5680 5682 5683 5686 5688 5690 5692 5694 5694 5696 5696 5697 5696 5698 5698 5699 5700 5702 5703 5705 5706 5708 5708 5708 5708 5710 5710 5710 5710 5712 5712 5712 5712 5714 5714 5714 5713 5712 5712 5712 5714 5714 5714 5713 5710 5710 5712 5710 5707 5708 5704 5704 5710 5710 5704 5704 5706 5705 5704 5703 5702 5700 5698 5698 5696 5696 5694 5692 5690
5634 5636 5646 5652 5652 5656 5656 5651 5650 5652 5650 5654 5660 5662 5664 5666 5668 5670 5672 5674 5676 5677 5679 5682 5684 5686 5687 5689 5690 5691 5692 5692 5692 5692 5692 5694 5696 5697 5698 5700 5700 5701 5702 5702 5704 5704 5704 5704 5704 5704 5706 5706 5706 5706 5706 5706 5706 5706 5706 5708 5709 5708 5707 5704 5702 5704 5703 5699 5700 5695 5692 5700 5704 5699 5698 5698 5695 5694 5695 5694 5692 5691 5690 5689 5687 5684 5682 5682
5627 5631 5638 5642 5644 5648 5646 5641 5643 5645 5644 5650 5654 5655 5656 5658 5662 5664 5666 5668 5670 5671 5673 5675 5677 5678 5681 5683 5684 5685 5686 5686 5686 5686 5687 5688 5690 5691 5692 5692 5694 5694 5694 5696 5697 5698 5697 5696 5698 5698 5698 5698 5698 5698 5699 5698 5699 5700 5701 5703 5702 5700 5701 5698 5695 5695 5694 5692 5692 5686 5682 5689 5694 5694 5693 5690 5688 5688 5688 5688 5687 5686 5684 5682 5678 5676 5674 5672
5622 5626 5630 5632 5636 5638 5634 5632 5636 5639 5640 5644 5647 5647 5649 5652 5654 5657 5660 5662 5664 5666 5668 5669 5671 5672 5675 5676 5678 5680 5680 5680 5680 5680 5681 5682 5683 5685 5686 5687 5688 5687 5688 5688 5690 5690 5690 5690 5692 5691 5690 5690 5690 5690 5692 5694 5694 5695 5696 5696 5694 5694 5694 5690 5688 5686 5683 5683 5685 5679 5675 5680 5686 5688 5686 5683 5682 5682 5681 5680 5681 5679 5676 5673 5670 5668 5666 5664
5617 5618 5621 5624 5628 5627 5625 5627 5632 5634 5635 5638 5640 5642 5644 5646 5648 5652 5654 5656 5658 5660 5662 5664 5665 5667 5668 5670 5671 5672 5673 5674 5674 5674 5676 5677 5678 5678 5680 5680 5680 5680 5681 5682 5682 5683 5682 5682 5684 5684 5684 5684 5684 5684 5687 5689 5689 5687 5687 5687 5686 5686 5685 5682 5681 5678 5672 5673 5676 5674 5671 5675 5680 5681 5677 5675 5676 5676 5674 5672 5672 5670 5667 5664 5662 5660 5658 5656
5610 5610 5614 5617 5618 5618 5619 5622 5625 5626 5629 5632 5632 5636 5638 5640 5642 5646 5648 5650 5652 5654 5656 5657 5659 5660 5662 5662 5664 5665 5666 5668 5668 5668 5670 5672 5672 5672 5673 5674 5674 5674 5675 5675 5675 5676 5674 5675 5678 5678 5678 5678 5678 5678 5679 5681 5680 5678 5679 5680 5679 5678 5678 5675 5672 5668 5666 5666 5666 5668 5668 5668 5672 5674 5668 5666 5668 5668 5666 5665 5663 5660 5658 5656 5654 5652 5650 5648
5602 5604 5607 5610 5611 5611 5613 5617 5618 5620 5624 5626 5625 5628 5632 5634 5636 5638 5640 5643 5646 5648 5649 5650 5652 5654 5655 5656 5658 5658 5660 5661 5660 5662 5664 5665 5664 5665 5666 5667 5668 5668 5668 5668 5668 5668 5667 5668 5671 5671 5671 5672 5672 5670 5670 5671 5671 5670 5670 5671 5671 5670 5668 5666 5662 5661 5663 5659 5656 5662 5664 5660 5664 5667 5660 5656 5658 5658 5656 5656 5653 5650 5649 5648 5646 5644 5642 5641
5595 5597 5600 5602 5604 5605 5608 5612 5614 5615 5618 5618 5619 5622 5624 5626 5629 5632 5634 5636 5638 5641 5642 5642 5646 5649 5650 5651 5651 5651 5654 5654 5654 5656 5658 5658 5658 5660 5660 5661 5661 5662 5662 5661 5661 5661 5660 5661 5664 5663 5662 5664 5664 5662 5663 5663 5663 5664 5663 5663 5664 5664 5660 5658 5656 5656 5657 5652 5650 5656 5656 5654 5660 5659 5650 5648 5650 5649 5646 5644 5642 5642 5641 5638 5636 5634 5634 5632
5588 5591 5594 5595 5596 5600 5603 5606 5608 5609 5611 5612 5613 5616 5618 5620 5623 5625 5628 5629 5630 5634 5634 5636 5640 5642 5642 5644 5644 5644 5646 5648 5648 5650 5651 5652 5652 5654 5654 5654 5654 5654 5654 5654 5654 5654 5652 5652 5655 5654 5652 5654 5656 5654 5654 5656 5654 5655 5656 5658 5658 5657 5653 5650 5650 5651 5648 5644 5646 5649 5646 5648 5654 5650 5644 5642 5642 5638 5636 5634 5634 5634 5632 5630 5628 5626 5626 5622
5581 5584 5586 5588 5590 5594 5596 5599 5600 5602 5604 5605 5606 5610 5612 5614 5617 5619 5620 5622 5624 5626 5628 5630 5634 5636 5635 5636 5636 5638 5642 5642 5642 5643 5644 5644 5645 5646 5646 5646 5647 5647 5646 5646 5646 5646 5645 5644 5646 5646 5644 5644 5648 5647 5646 5648 5646 5646 5650 5652 5650 5647 5646 5646 5644 5644 5640 5639 5642 5640 5636 5640 5646 5642 5636 5634 5630 5628 5627 5626 5625 5624 5621 5620 5619 5618 5616 5614
5574 5576 5578 5581 5583 5586 5588 5592 5594 5594 5596 5598 5600 5604 5606 5608 5611 5612 5613 5614 5617 5619 5622 5624 5626 5626 5626 5627 5629 5634 5636 5634 5634 5635 5636 5636 5636 5637 5637 5638 5639 5638 5638 5639 5638 5638 5638 5636 5638 5638 5634 5635 5640 5640 5637 5640 5638 5636 5641 5644 5640 5640 5642 5640 5637 5636 5635 5634 5634 5630 5627 5632 5636 5632 5626 5624 5622 5620 5620 5618 5616 5614 5612 5610 5610 5609 5606 5604
5567 5568 5571 5573 5574 5577 5580 5584 5586 5587 5590 5592 5594 5597 5599 5600 5603 5604 5605 5607 5610 5612 5614 5616 5618 5618 5618 5620 5624 5628 5628 5625 5625 5626 5627 5628 5628 5628 5628 5630 5630 5630 5630 5631 5630 5630 5631 5630 5630 5630 5626 5626 5632 5632 5629 5630 5626 5624 5633 5638 5635 5636 5637 5632 5628 5629 5630 5628 5624 5620 5621 5624 5624 5620 5617 5618 5616 5614 5612 5610 5608 5606 5604 5602 5601 5600 5598 5595